Decatur, AL

12:27 PM CDT on March 23, 2017 (GMT -0500)
Pryor Regional

Weather History for KDCU - May, 2014

Change the Weather History Date:

Sunday, May 4, 2014

  Actual Average Record
Temperature  
Mean Temperature 68 °F -  
Max Temperature 88 °F 74 °F 91 °F (1952)
Min Temperature 48 °F 51 °F 35 °F (1971)
Cooling Degree Days 2    
Growing Degree Days 18 (Base 50)    
Moisture  
Dew Point 49 °F    
Average Humidity 53    
Maximum Humidity 93    
Minimum Humidity 26    
Precipitation  
Precipitation 0.00 in - - ()
Sea Level Pressure  
Sea Level Pressure 30.04 in    
Wind  
Wind Speed 4 mph (SW)    
Max Wind Speed 12 mph    
Max Gust Speed 17 mph    
Visibility 10 miles    
Events      
Averages and records for this station are not official NWS values.
T = Trace of Precipitation, MM = Missing Value Source: NWS Daily Summary

Daily Weather History Graph

Daily Weather History Graph

Search for Another Location

Airport or City:

Trip Planner

Search our weather history database for the weather conditions in past years. The results will help you decide how hot, cold, wet, or windy it might be!

Date:

Astronomy

May. 04, 2014 Rise Set
Actual Time 5:54 AM CDT 7:35 PM CDT
Civil Twilight 5:27 AM CDT 8:02 PM CDT
Nautical Twilight 4:54 AM CDT 8:35 PM CDT
Astronomical Twilight 4:20 AM CDT 9:09 PM CDT
Moon 10:19 AM CDT (5/4) No Moon Set
Length of Visible Light 14h 34m
Length of Day
13h 40m
Waxing Crescent, 28% of the Moon is Illuminated
May 4
Waxing Crescent
May 6
First Quarter
May 14
Full
May 21
Last Quarter
May 28
New

Hourly Weather History & Observations

Time (CDT) Temp. Dew Point Humidity Pressure Visibility Wind Dir Wind Speed Gust Speed Precip Events Conditions
12:53 AM 55.0 °F 48.9 °F 80% 30.05 in 10.0 mi Calm Calm - N/A   Clear
1:53 AM 53.1 °F 50.0 °F 89% 30.05 in 10.0 mi Calm Calm - N/A   Clear
2:53 AM 53.1 °F 50.0 °F 89% 30.04 in 10.0 mi Calm Calm - N/A   Clear
3:53 AM 50.0 °F 48.0 °F 93% 30.04 in 10.0 mi Calm Calm - N/A   Clear
4:53 AM 50.0 °F 48.0 °F 93% 30.06 in 10.0 mi Calm Calm - N/A   Clear
5:53 AM 48.0 °F 46.0 °F 93% 30.07 in 10.0 mi Calm Calm - N/A   Clear
6:53 AM 53.1 °F 50.0 °F 89% 30.10 in 10.0 mi Calm Calm - N/A   Clear
7:53 AM 61.0 °F 53.1 °F 75% 30.11 in 10.0 mi Calm Calm - N/A   Clear
8:53 AM 68.0 °F 48.0 °F 49% 30.11 in 10.0 mi SW 4.6 mph - N/A   Clear
9:53 AM 73.9 °F 48.9 °F 41% 30.10 in 10.0 mi SW 6.9 mph - N/A   Clear
10:53 AM 79.0 °F 48.9 °F 35% 30.10 in 10.0 mi West 9.2 mph - N/A   Clear
11:53 AM 82.0 °F 48.9 °F 31% 30.09 in 10.0 mi West 9.2 mph - N/A   Clear
12:53 PM 84.0 °F 48.0 °F 28% 30.06 in 10.0 mi West 8.1 mph - N/A   Clear
1:53 PM 86.0 °F 48.0 °F 27% 30.04 in 10.0 mi WSW 9.2 mph 17.3 mph N/A   Clear
2:53 PM 86.0 °F 48.0 °F 27% 30.02 in 10.0 mi WSW 9.2 mph - N/A   Clear
3:53 PM 87.1 °F 48.0 °F 26% 30.00 in 10.0 mi WSW 8.1 mph - N/A   Clear
4:53 PM 87.1 °F 48.0 °F 26% 29.99 in 10.0 mi WSW 11.5 mph - N/A   Clear
5:53 PM 84.9 °F 48.9 °F 29% 29.99 in 10.0 mi WSW 9.2 mph - N/A   Clear
6:53 PM 82.0 °F 50.0 °F 33% 29.99 in 10.0 mi WSW 6.9 mph - N/A   Clear
7:53 PM 78.1 °F 50.0 °F 37% 29.98 in 10.0 mi SSW 6.9 mph - N/A   Clear
8:53 PM 75.9 °F 51.1 °F 42% 29.99 in 10.0 mi SSW 9.2 mph - N/A   Clear
9:53 PM 73.9 °F 52.0 °F 46% 29.99 in 10.0 mi SSW 9.2 mph - N/A   Clear
10:53 PM 72.0 °F 52.0 °F 49% 29.98 in 10.0 mi SSW 9.2 mph - N/A   Clear
11:53 PM 72.0 °F 52.0 °F 49% 29.99 in 10.0 mi SSW 9.2 mph - N/A   Clear